Terug naar catalogus

SJ-20

ActiefWetenschapGEO
NORAD 44910·PAYLOAD·🇨🇳 China

Gelanceerd Dec 27, 2019 vanaf Wenchang Space Launch Site

Loading…

TLE

VersSource: Space-Track

Epoch: Sep 14, 2026, 03:43 UTC

1 44910U 19097A   26257.15547711  .00000140  00000-0  00000+0 0  9991
2 44910   5.1421  73.9208 0002654 168.7615 206.7468  1.00273511 24596

Volg SJ-20 in realtime met AllMySat

Download on the App Store